Location: Unspecified
(0.0000°N, 0.0000°E)
Time: 00:35:41
(UTC+02:00)

BREEZE-M DEB (TANK) - Visible Passes

Search period start: 25 September 2016 00:00
Search period end: 05 October 2016 00:00
Orbit: 310 x 16360 km, 49.4° (Epoch: 21 September)

Date Brightness Start Highest point End Pass type
(mag) Time Alt. Az. Time Alt. Az. Time Alt. Az.
26 Sep 7.3 00:03:03 10° W 00:15:25 12° WSW 00:22:34 10° WSW visible
27 Sep 6.6 06:30:56 10° SE 06:35:17 14° E 06:42:57 10° ENE visible
27 Sep 6.8 18:06:17 10° NNW 20:30:53 84° NE 20:49:39 10° SE visible
28 Sep 6.1 07:08:53 10° S 07:15:13 32° ESE 07:38:34 10° NE visible
28 Sep 6.8 19:06:34 10° NW 21:14:50 75° WSW 21:31:09 10° SSE visible
29 Sep 6.8 20:09:58 10° NW 21:56:52 54° WSW 22:11:58 10° S visible
30 Sep 7.0 21:19:27 10° NW 22:37:32 35° WSW 22:51:58 10° S visible
01 Oct 7.3 22:39:00 10° WNW 23:17:44 19° WSW 23:30:02 10° SW visible
04 Oct 6.2 06:13:03 10° SSE 06:18:27 22° ESE 06:32:53 10° ENE visible
04 Oct 6.9 17:52:30 10° NNW 20:15:15 83° WSW 20:34:08 10° SSE visible
